Regional Weather Roundup
Issued by NWS

Home | Current Version | Previous Version | Graphics & Text | Print | Product List | Glossary On
Versions: 1 2 3 4 5 6 7 8 9 10 11 12 13 14 15 16 17 18 19 20 21 22 23 24 25 26 27 28 29 30 31 32 33 34 35 36 37 38 39 40 41 42 43 44 45 46 47 48 49 50
000
ASUS43 KFSD 010502
RWRSD

WEATHER ROUNDUP FOR SOUTH DAKOTA
NATIONAL WEATHER SERVICE SIOUX FALLS SD
1200 AM CDT SUN MAY 01 2016

NOTE: "FAIR" INDICATES FEW OR NO CLOUDS BELOW 12,000 FEET WITH NO
SIGNIFICANT WEATHER AND/OR OBSTRUCTIONS TO VISIBILITY.


SDZ001>005-009-010-012>017-010600-
NORTHWEST AND NORTH CENTRAL SOUTH DAKOTA

CITY           SKY/WX    TMP DP  RH WIND       PRES   REMARKS
BUFFALO          N/A     41  27  57 N9        30.21S
FAITH            N/A     39  28  64 N5        30.23R
MOBRIDGE       CLEAR     43  32  65 N10       30.19R
$$

SDZ012>016-024>037-041>051-057-063-072>074-010600-
SOUTHWEST AND SOUTH CENTRAL SOUTH DAKOTA

CITY           SKY/WX    TMP DP  RH WIND       PRES   REMARKS
RAPID CTY ARPT CLOUDY    39  31  72 N9        30.23R
PIERRE         CLOUDY    42  34  73 N9        30.15R
CUSTER         CLOUDY    35  24  64 NE14G25   30.19R WCI  26
ELLSWORTH AFB  CLOUDY    44  30  59 N12       30.23R
PHILIP         CLOUDY    41  33  73 N14       30.18R
PINE RIDGE     LGT RAIN  40  37  89 N6        30.18R
WINNER         LGT RAIN  43  40  89 E8        30.14R
$$

SDZ004>011-016>023-039-040-010600-
NORTHEAST SOUTH DAKOTA

CITY           SKY/WX    TMP DP  RH WIND       PRES   REMARKS
ABERDEEN       CLEAR     42  33  70 NE8       30.19R
WATERTOWN      CLOUDY    44  30  57 NE16G23   30.12S
BROOKINGS      CLOUDY    45  34  65 NE10      30.09R
SISSETON         N/A     39  31  72 CALM      30.18R
$$

SDZ017-020-022-023-036>040-048>070-010600-
SOUTHEAST SOUTH DAKOTA

CITY           SKY/WX    TMP DP  RH WIND       PRES   REMARKS
SIOUX FALLS    CLOUDY    44  40  85 NE12      30.08R
HURON          CLOUDY    45  37  73 NE8       30.12R
MITCHELL       LGT RAIN  45  42  89 E8        30.12R
YANKTON        CLOUDY    45  39  81 NE24      30.04R
$$

ABBREVIATIONS USED IN REMARKS
   TC - TEMPERATURE IN CELSIUS
  WCI - WIND CHILL INDEX
   HX - HEAT INDEX
  VSB - VISIBILITY




USA.gov is the U.S. government's official web portal to all federal, state and local government web resources and services.